Location: Peebles
(55.6412°N, 3.1714°W)
Time: 20:10:19
(UTC+01:00)

Transit 4A - All Passes

Search period start: 02 October 2022 00:00
Search period end: 12 October 2022 00:00
Orbit: 869 x 974 km, 66.8° (Epoch: 02 October)

Date Brightness Start Highest point End Pass type
(mag) Time Alt. Az. Time Alt. Az. Time Alt. Az.
02 Oct - 00:57:36 10° SW 01:03:45 70° NW 01:09:44 10° NE visible
02 Oct - 02:45:37 10° W 02:51:03 33° NNW 02:56:22 10° NE visible
02 Oct - 04:33:48 10° NW 04:39:00 29° N 04:44:06 10° ENE visible
02 Oct - 06:20:47 10° NW 06:26:36 52° NE 06:32:17 10° ESE visible
02 Oct - 08:07:20 10° NW 08:13:01 51° WSW 08:18:37 10° SSE daylight
02 Oct - 09:56:11 10° W 09:58:01 12° W 09:59:52 10° WSW daylight
02 Oct - 21:40:12 10° ESE 21:41:45 11° E 21:43:16 10° E night (unlit)
02 Oct - 23:20:53 10° SSW 23:26:45 48° ESE 23:32:29 10° NE visible
03 Oct - 01:07:05 10° WSW 01:13:06 57° NW 01:19:00 10° NE visible
03 Oct - 02:55:20 10° WNW 03:00:38 30° NNW 03:05:49 10° NE visible
03 Oct - 04:43:18 10° NW 04:48:35 31° NNE 04:53:47 10° ENE visible
03 Oct - 06:30:04 10° NW 06:35:59 64° NE 06:41:46 10° ESE visible
03 Oct - 08:16:43 10° NW 08:22:06 38° WSW 08:27:25 10° S daylight
03 Oct - 21:47:04 10° SE 21:50:35 16° ESE 21:54:05 10° ENE night (unlit)
03 Oct - 23:29:50 10° SSW 23:35:54 63° SE 23:41:49 10° NE visible
04 Oct - 01:16:39 10° WSW 01:22:32 47° NNW 01:28:17 10° NE visible
04 Oct - 03:05:02 10° WNW 03:10:13 29° N 03:15:19 10° NE visible
04 Oct - 04:52:43 10° NW 04:58:09 35° NNE 05:03:29 10° E visible
04 Oct - 06:39:20 10° NW 06:45:18 80° NE 06:51:08 10° SE visible
04 Oct - 08:26:13 10° NW 08:31:08 28° WSW 08:35:59 10° S daylight
04 Oct - 21:54:57 10° SSE 21:59:30 22° ESE 22:03:58 10° ENE visible
04 Oct - 23:38:57 10° SW 23:45:06 81° SE 23:51:07 10° NE visible
05 Oct - 01:26:18 10° W 01:32:00 40° NNW 01:37:35 10° NE visible
05 Oct - 03:14:42 10° WNW 03:19:50 28° N 03:24:52 10° ENE visible
05 Oct - 05:02:06 10° NW 05:07:40 39° NNE 05:13:08 10° E visible
05 Oct - 06:48:38 10° NW 06:54:33 81° SW 07:00:22 10° SE visible
05 Oct - 08:35:52 10° WNW 08:40:05 21° WSW 08:44:15 10° SSW daylight
05 Oct - 22:03:16 10° S 22:08:29 30° ESE 22:13:35 10° NE visible
05 Oct - 23:48:13 10° SW 23:54:23 80° NW 00:00:23 10° NE visible
06 Oct - 01:36:00 10° W 01:41:31 35° NNW 01:46:56 10° NE visible
06 Oct - 03:24:17 10° NW 03:29:26 28° N 03:34:30 10° ENE visible
06 Oct - 05:11:25 10° NW 05:17:08 46° NNE 05:22:45 10° ESE visible
06 Oct - 06:57:56 10° NW 07:03:45 62° SW 07:09:28 10° SSE daylight
06 Oct - 08:45:51 10° WNW 08:48:58 15° WSW 08:52:03 10° SW daylight
06 Oct - 22:11:53 10° S 22:17:31 40° ESE 22:23:03 10° NE visible
06 Oct - 23:57:36 10° WSW 00:03:42 65° NW 00:09:38 10° NE visible
07 Oct - 01:45:43 10° WNW 01:51:05 32° NNW 01:56:20 10° NE visible
07 Oct - 03:33:49 10° NW 03:39:02 30° N 03:44:09 10° ENE visible
07 Oct - 05:20:43 10° NW 05:26:34 56° NE 05:32:17 10° ESE visible
07 Oct - 07:07:18 10° NW 07:12:53 46° WSW 07:18:23 10° SSE daylight
07 Oct - 20:39:06 10° SE 20:41:31 13° ESE 20:43:55 10° ENE night (unlit)
07 Oct - 22:20:42 10° SSW 22:26:37 53° ESE 22:32:26 10° NE visible
08 Oct - 00:07:07 10° WSW 00:13:05 53° NW 00:18:55 10° NE visible
08 Oct - 01:55:26 10° WNW 02:00:40 29° N 02:05:47 10° NE visible
08 Oct - 03:43:17 10° NW 03:48:37 32° NNE 03:53:50 10° E visible
08 Oct - 05:30:00 10° NW 05:35:55 69° NE 05:41:44 10° SE visible
08 Oct - 07:16:42 10° NW 07:21:57 34° WSW 07:27:07 10° S daylight
08 Oct - 20:46:28 10° SE 20:50:23 18° ESE 20:54:15 10° ENE night (unlit)
08 Oct - 22:29:42 10° SSW 22:35:47 69° SE 22:41:45 10° NE visible
09 Oct - 00:16:43 10° WSW 00:22:31 44° NNW 00:28:12 10° NE visible
09 Oct - 02:05:06 10° WNW 02:10:15 28° N 02:15:19 10° NE visible
09 Oct - 03:52:42 10° NW 03:58:09 36° NNE 04:03:32 10° E visible
09 Oct - 05:39:17 10° NW 05:45:13 87° NE 05:51:03 10° SE visible
09 Oct - 07:26:15 10° WNW 07:30:57 25° WSW 07:35:35 10° SSW daylight
09 Oct - 20:54:32 10° SSE 20:59:20 24° ESE 21:04:02 10° ENE night (unlit)
09 Oct - 22:38:53 10° SW 22:45:02 88° SE 22:51:02 10° NE visible
10 Oct - 00:26:23 10° W 00:32:00 38° NNW 00:37:31 10° NE visible
10 Oct - 02:14:45 10° WNW 02:19:52 28° N 02:24:54 10° ENE visible
10 Oct - 04:02:03 10° NW 04:07:40 41° NNE 04:13:10 10° E visible
10 Oct - 05:48:34 10° NW 05:54:27 74° SW 06:00:15 10° SSE visible
10 Oct - 07:35:59 10° WNW 07:39:53 19° WSW 07:43:44 10° SSW daylight
10 Oct - 21:02:57 10° S 21:08:19 33° ESE 21:13:35 10° NE visible
10 Oct - 22:48:12 10° SW 22:54:19 75° NW 23:00:18 10° NE visible
11 Oct - 00:36:05 10° W 00:41:33 34° NNW 00:46:53 10° NE visible
11 Oct - 02:24:19 10° NW 02:29:29 29° N 02:34:32 10° ENE visible
11 Oct - 04:11:21 10° NW 04:17:07 49° NNE 04:22:46 10° ESE visible
11 Oct - 05:57:53 10° NW 06:03:38 56° WSW 06:09:17 10° SSE visible
11 Oct - 07:46:12 10° WNW 07:48:44 13° WSW 07:51:16 10° SW daylight
11 Oct - 21:11:39 10° S 21:17:23 44° ESE 21:23:00 10° NE visible
11 Oct - 22:57:37 10° WSW 23:03:39 60° NW 23:09:33 10° NE visible
